This is the latest recevied weather packets stored in our database for station/object KO4ZGL-13. If no packets are shown the sender has not sent any weather packets the latest 10 day(s).
| Time | Temp. | Humidity | Pressure | Rain* | Wind** | Luminosity | Snow |
|---|---|---|---|---|---|---|---|
| 1787934038 | 25.56° C | 98% | 1018.4 hPa | 0 mm | - | 88 W/m² | - |
| 1787933738 | 25.56° C | 98% | 1018.5 hPa | 0 mm | - | 103 W/m² | - |
| 1787933433 | 25.56° C | 98% | 1018.6 hPa | 0 mm | - | 114 W/m² | - |
| 1787933133 | 25.56° C | 99% | 1018.6 hPa | 0 mm | - | 131 W/m² | - |
| 1787932827 | 25.56° C | 99% | 1018.8 hPa | 0 mm | - | 138 W/m² | - |
| 1787932521 | 25.56° C | 99% | 1018.5 hPa | 0 mm | - | 131 W/m² | - |
| 1787932216 | 25.56° C | 99% | 1018.8 hPa | 0 mm | - | 115 W/m² | - |
| 1787931914 | 25° C | 99% | 1018.7 hPa | 0 mm | - | 94 W/m² | - |
| 1787931609 | 25° C | 99% | 1018.8 hPa | 0 mm | - | 80 W/m² | - |
| 1787931304 | 25° C | 99% | 1018.7 hPa | 0 mm | - | 89 W/m² | - |
| 1787931004 | 25° C | 99% | 1019.1 hPa | 0 mm | - | 88 W/m² | - |
| 1787930703 | 25° C | 99% | 1018.8 hPa | 0 mm | - | 88 W/m² | - |
| 1787930397 | 25° C | 99% | 1018.7 hPa | 0 mm | - | 100 W/m² | - |
| 1787930092 | 25° C | 99% | 1018.8 hPa | 0 mm | - | 116 W/m² | - |
| 1787929790 | 24.44° C | 99% | 1018.8 hPa | 0 mm | - | 154 W/m² | - |
| 1787929486 | 24.44° C | 99% | 1018.5 hPa | 0 mm | - | 180 W/m² | - |
| 1787929184 | 24.44° C | 99% | 1018.5 hPa | 0 mm | - | 172 W/m² | - |
| 1787928879 | 25° C | 99% | 1018.7 hPa | 0 mm | - | 133 W/m² | - |
| 1787928573 | 25° C | 99% | 1018.6 hPa | 0 mm | - | 103 W/m² | - |
| 1787928272 | 24.44° C | 99% | 1018.5 hPa | 0 mm | - | 96 W/m² | - |
| 1787927971 | 24.44° C | 99% | 1018.6 hPa | 0 mm | - | 103 W/m² | - |
| 1787927665 | 24.44° C | 99% | 1018.5 hPa | 0 mm | - | 113 W/m² | - |
| 1787927359 | 24.44° C | 99% | 1018.5 hPa | 0 mm | - | 119 W/m² | - |
| 1787927055 | 24.44° C | 99% | 1018.3 hPa | 0 mm | - | 128 W/m² | - |
| 1787926750 | 23.89° C | 99% | 1018.3 hPa | 0 mm | - | 154 W/m² | - |
* Rain latest hour (hover to see other rain measurements)
** Current wind speed in m/s (hover to see current wind gust speed)